Temp_Advection
nan nan nan nan nan nan nan nan nan nan nan nan nan nan nan nan nan nan nan nan nan nan
nan 2 2 2 2 3 2 2 1 1 1 1 1 1 1 0 0 0 0 0 0 nan
nan 1 2 2 2 1 1 2 2 2 1 1 1 1 1 0 0 0 0 0 0 nan
nan 2 2 2 2 1 2 1 2 1 1 1 1 1 0 0 0 1 0 0 0 nan
nan 2 1 2 1 2 2 1 1 1 2 1 0 1 1 1 1 1 0 0 0 nan
nan 1 1 2 1 1 1 2 1 1 1 0 1 1 1 1 1 0 0 0 0 nan
nan 1 1 1 1 1 1 2 1 1 -0 0 1 1 1 0 0 0 0 0 0 nan
nan 1 1 0 0 1 0 0 0 0 0 1 1 1 1 0 0 0 0 0 0 nan
nan 0 1 1 0 0 0 -0 -0 0 1 1 1 0 0 0 0 0 0 0 0 nan
nan 1 1 0 0 0 -0 -0 0 1 1 0 0 0 0 0 0 0 0 0 0 nan
nan 0 -0 0 -0 -0 0 1 0 0 0 0 0 0 0 0 0 0 0 0 0 nan
nan -0 -0 -0 0 0 0 0 0 0 0 0 0 0 0 0 0 0 0 0 0 nan
nan 0 0 0 0 0 0 0 0 0 0 0 0 0 0 0 0 0 0 0 0 nan
nan nan nan nan nan nan nan nan nan nan nan nan nan nan nan nan nan nan nan nan nan nan
Wind_Speed
39 39 36 37 36 32 35 33 31 28 24 22 21 19 17 16 14 13 13 13 13 13
41 39 41 35 34 34 34 33 30 28 27 25 21 19 16 16 14 12 12 11 12 12
36 38 35 35 34 35 33 30 29 28 25 22 21 18 16 15 13 12 12 12 12 12
32 33 34 36 35 32 32 31 30 26 24 22 19 17 16 14 13 13 12 12 11 10
32 35 36 33 32 32 31 29 26 26 23 20 18 16 14 12 12 11 11 11 10 9
28 31 32 32 31 29 28 28 26 23 19 18 16 15 14 13 13 13 11 10 9 8
32 32 30 28 27 28 25 22 20 18 18 16 17 16 16 15 15 14 11 8 7 6
29 28 28 26 26 24 22 20 19 18 19 18 17 18 18 16 12 11 10 9 8 7
30 28 27 25 23 22 21 20 20 20 20 20 19 17 15 12 11 11 9 9 9 8
27 26 25 24 22 22 24 23 22 21 20 19 17 15 13 12 11 11 10 10 9 9
25 25 24 24 24 23 23 23 23 22 19 16 14 12 12 12 12 11 11 10 9 9
22 24 24 23 23 23 23 23 21 18 15 13 12 12 12 12 12 12 11 11 9 8
20 20 22 22 23 23 22 21 19 16 13 12 12 12 12 13 12 12 12 11 10 9
18 18 19 20 21 22 22 20 18 15 13 12 12 13 12 11 12 11 11 11 10 9
Wind_Direction
197 192 202 195 190 195 195 191 190 190 192 196 198 195 197 201 205 204 203 211 214 218
194 188 192 193 190 195 189 186 187 191 193 195 195 193 198 205 210 210 214 215 218 216
190 189 188 189 190 186 188 187 186 186 190 190 190 192 196 201 203 211 215 214 218 218
192 189 189 183 182 187 185 184 184 181 181 181 184 189 197 201 206 204 205 205 204 206
187 182 180 182 180 181 182 180 181 180 183 179 182 188 195 200 197 198 196 193 189 190
182 184 182 179 177 175 176 175 171 168 166 182 184 185 183 183 181 175 170 168 164 163
175 175 174 172 168 166 163 156 150 164 169 180 180 177 176 172 164 156 160 174 188 199
160 161 157 157 154 151 147 156 160 169 172 174 173 167 166 169 178 184 188 191 194 198
155 156 157 158 150 149 149 159 168 170 170 166 165 168 171 177 183 189 200 208 207 202
156 153 148 144 143 153 164 164 163 163 164 164 169 173 179 186 193 195 190 184 181 183
151 148 145 154 160 161 163 162 162 163 165 172 177 184 190 191 189 187 186 189 193 196
153 155 158 161 163 165 164 164 166 169 173 183 190 191 190 190 191 192 194 197 202 209
161 166 166 167 168 169 171 171 173 175 178 185 190 195 198 194 198 200 201 205 211 221
170 174 175 174 175 175 176 180 181 184 188 192 193 183 205 197 199 206 212 217 225 234
Height
1508 1513 1520 1525 1532 1537 1541 1547 1554 1558 1564 1568 1572 1575 1578 1582 1584 1585 1587 1589 1591 1593
1507 1510 1517 1521 1527 1533 1540 1543 1549 1554 1559 1564 1569 1572 1576 1579 1581 1583 1586 1587 1589 1590
1501 1507 1513 1518 1523 1530 1535 1541 1545 1552 1557 1561 1566 1569 1573 1576 1578 1581 1583 1585 1587 1588
1498 1504 1512 1515 1521 1525 1532 1538 1544 1548 1554 1559 1563 1567 1571 1574 1576 1579 1582 1584 1585 1586
1499 1503 1510 1514 1520 1525 1530 1535 1542 1546 1553 1557 1562 1566 1570 1573 1576 1578 1580 1582 1584 1585
1498 1505 1507 1514 1518 1523 1529 1533 1540 1545 1550 1559 1562 1565 1568 1572 1575 1577 1580 1581 1583 1585
1498 1504 1509 1514 1520 1525 1529 1536 1539 1549 1553 1559 1562 1565 1568 1572 1574 1577 1579 1581 1583 1585
1501 1508 1509 1518 1521 1526 1531 1539 1543 1549 1553 1559 1563 1565 1569 1572 1574 1576 1578 1580 1582 1583
1504 1509 1513 1518 1522 1528 1534 1541 1546 1550 1554 1558 1562 1566 1569 1571 1573 1576 1577 1579 1580 1582
1506 1511 1515 1519 1525 1531 1537 1541 1546 1551 1555 1559 1562 1565 1567 1570 1572 1574 1575 1578 1579 1581
1509 1512 1517 1523 1528 1533 1538 1542 1547 1551 1555 1558 1561 1564 1566 1568 1570 1572 1575 1577 1579 1580
1512 1515 1520 1524 1529 1534 1538 1543 1548 1552 1555 1558 1560 1563 1565 1567 1569 1571 1573 1575 1577 1578
1515 1519 1522 1526 1529 1534 1540 1544 1548 1551 1554 1557 1559 1561 1563 1566 1568 1570 1571 1573 1574 1576
1517 1521 1524 1527 1531 1535 1539 1544 1548 1550 1553 1555 1558 1560 1562 1564 1566 1568 1569 1571 1573 1574